Theta_e
298 298 298 298 298 298 297 297 297 297 297 297 297 297 297 298 298 298 299 299 300 300 301 302 303 303 303 303 304 304 304 304 304 305 305 305 306 307 311 313 316 314 314 316 319 321 323 324 326 327 327 330 333 339 340 340 341 342 343 344 345 345 347 347 346 345 344 344 344 344 345 345 344 344 345 344 344 344 344 344 343 344 342 341 342
297 297 297 297 297 297 297 296 296 296 296 296 296 296 296 297 298 298 298 298 298 299 299 300 301 302 302 302 303 303 303 302 303 303 304 304 305 305 308 311 315 314 314 315 317 320 321 323 324 324 325 327 328 331 335 339 341 340 341 342 343 345 346 346 346 345 343 343 343 343 344 344 344 343 343 344 343 343 344 344 344 343 342 341 341
296 296 296 296 296 296 295 296 295 295 295 295 296 296 296 296 297 297 297 298 298 298 298 299 299 300 301 301 301 302 302 302 303 303 303 304 304 305 307 308 311 313 314 314 315 316 319 321 323 324 324 325 326 328 329 332 337 340 339 341 342 344 345 346 345 345 344 343 343 342 342 343 343 341 341 343 342 343 343 343 343 343 342 340 340
297 297 295 296 295 295 295 295 294 295 294 294 295 296 296 297 297 297 298 298 298 298 299 298 298 299 300 300 300 300 301 301 301 302 303 304 304 305 305 307 308 311 313 315 315 315 317 318 320 322 324 325 326 327 328 329 331 336 339 340 340 341 343 343 344 344 344 344 343 342 342 341 341 340 340 342 342 342 342 341 342 342 341 340 339
296 296 296 295 295 295 295 294 294 294 294 295 295 295 295 296 296 297 297 297 296 297 299 297 296 297 298 299 299 299 300 301 301 301 302 303 303 304 305 306 306 308 309 312 314 314 314 315 316 318 321 324 325 326 327 328 329 329 334 339 340 341 341 342 343 344 344 345 344 343 342 342 342 341 341 342 342 342 341 341 341 341 341 340 339
295 296 295 294 294 294 294 294 294 294 293 294 293 294 294 294 295 295 296 295 295 296 295 295 296 296 296 297 297 298 299 299 299 299 300 301 302 303 304 304 305 305 307 308 310 313 314 314 314 316 317 319 322 325 326 327 328 329 329 330 337 339 341 341 342 344 345 346 345 344 343 342 342 342 342 342 341 341 341 341 341 341 341 340 339
295 294 294 294 293 293 293 293 293 293 292 293 293 293 294 293 293 293 294 294 295 295 295 294 295 295 296 296 296 296 297 297 299 300 300 301 301 302 303 303 304 305 306 306 305 307 312 314 315 314 315 317 319 321 325 326 327 329 330 329 330 337 338 341 342 341 342 345 344 343 342 341 342 342 342 342 340 341 342 341 340 341 340 340 339
294 294 293 294 293 293 292 293 293 292 292 292 293 292 293 293 293 294 292 293 293 293 294 294 295 295 296 296 296 296 296 297 297 298 300 300 300 301 302 302 303 304 305 304 304 304 307 310 312 312 312 313 315 316 319 322 325 326 328 330 330 329 336 337 339 340 341 342 342 342 342 341 341 341 342 342 341 341 341 341 340 340 340 340 339
294 294 293 293 293 292 292 293 292 291 291 291 292 292 292 292 292 293 293 292 292 293 293 293 293 294 294 295 295 296 296 297 297 298 300 299 300 300 301 302 303 303 304 304 305 305 306 308 311 312 313 312 313 314 316 319 320 323 326 329 330 331 330 336 337 339 339 339 341 341 341 341 342 342 341 341 342 341 341 341 340 339 339 339 339
293 293 293 293 292 292 292 292 292 291 291 291 291 292 292 292 291 292 292 292 291 291 291 292 293 293 293 294 295 296 296 297 298 299 298 298 299 300 301 302 302 303 303 304 304 303 304 306 308 309 308 311 314 314 315 316 318 320 323 325 327 328 330 331 336 337 338 337 337 340 341 341 341 342 342 341 341 341 341 341 340 339 339 339 338
293 293 292 292 292 292 292 292 291 290 290 290 290 291 291 292 292 291 292 293 292 291 291 292 293 293 293 293 294 295 296 297 298 298 298 299 300 301 302 301 302 303 303 303 303 304 304 305 304 305 306 308 315 316 315 316 316 319 321 323 325 327 327 328 330 335 337 337 335 336 341 341 342 342 342 341 340 339 339 339 340 339 339 339 338
292 292 291 291 291 291 291 291 291 290 289 289 290 290 290 290 290 290 290 291 292 292 292 292 292 291 291 293 295 296 295 295 295 296 298 299 300 301 300 302 302 303 303 304 304 304 305 305 304 304 305 307 310 312 314 314 314 315 316 319 322 325 327 327 327 328 335 338 338 335 336 341 341 342 342 341 341 340 339 340 340 339 338 338 339
291 291 291 291 290 290 290 290 291 290 289 289 290 290 291 291 290 290 289 289 290 292 292 292 289 289 292 291 291 293 294 295 295 296 297 298 299 300 301 301 302 302 303 303 304 304 304 304 304 305 305 306 306 307 310 311 312 315 316 317 319 321 323 326 328 327 331 334 337 337 335 336 339 342 342 342 341 341 340 340 340 339 339 338 338
291 291 290 290 290 290 290 290 290 290 290 290 290 290 289 289 290 289 290 289 289 291 291 291 289 287 286 286 289 292 294 293 293 294 297 299 301 301 301 301 301 303 303 303 303 304 303 303 304 305 305 306 306 307 308 308 310 315 318 320 320 321 323 325 326 327 328 333 335 337 338 337 337 340 341 343 342 342 341 340 340 340 339 339 339
291 291 290 290 290 289 289 289 290 289 289 288 289 289 289 290 290 289 287 289 289 290 290 292 288 288 288 286 285 285 289 291 295 298 295 294 294 293 294 295 297 299 300 301 302 302 303 304 305 306 307 307 308 308 309 307 309 306 311 315 318 320 321 324 326 328 328 328 334 336 338 339 338 340 341 342 342 343 342 341 340 340 339 339 338
290 290 290 289 289 289 289 289 289 289 289 288 288 288 289 289 289 289 289 286 287 288 291 291 290 288 283 284 284 285 283 287 288 290 293 292 292 294 297 298 297 297 299 298 299 301 301 302 302 303 302 302 302 303 303 304 303 300 300 304 309 317 321 323 324 326 328 329 330 335 337 339 340 340 341 342 342 343 343 342 341 340 339 339 338
290 289 289 289 289 289 288 289 289 289 289 288 287 288 288 289 289 288 288 286 286 287 288 290 290 291 287 284 283 282 283 284 286 286 290 291 294 293 293 294 295 296 297 298 300 300 300 299 301 302 303 303 303 304 304 305 305 304 303 300 303 310 318 324 324 324 325 328 331 333 335 337 339 340 341 341 340 342 342 343 341 340 339 339 338
289 289 289 288 288 289 289 288 288 288 289 288 288 288 288 288 288 288 288 288 287 286 286 289 290 290 290 289 287 282 282 285 284 281 288 290 290 292 293 294 295 295 296 296 296 296 297 297 298 299 301 302 302 302 302 302 301 303 304 306 308 310 310 312 316 322 329 331 328 331 333 336 338 340 340 340 341 341 341 342 341 339 338 338 338
289 289 288 288 288 288 288 288 288 288 288 287 287 287 287 288 289 288 288 288 287 285 285 286 288 289 290 290 289 289 288 284 281 284 281 286 289 290 291 293 294 294 294 295 296 296 296 297 298 298 299 300 300 301 301 302 301 301 300 301 304 306 307 309 310 313 319 326 331 332 332 333 338 339 340 340 339 340 340 340 341 341 339 339 339
288 288 288 288 287 287 287 287 287 287 287 287 287 287 287 288 288 288 287 287 286 285 284 286 284 285 288 287 288 288 289 288 288 284 283 281 283 289 291 291 292 292 293 293 293 294 295 296 297 297 298 299 300 300 300 301 302 303 302 303 305 306 308 309 310 310 315 321 327 329 333 334 335 338 338 340 338 338 338 340 341 341 339 339 339
288 288 288 287 287 286 286 286 286 286 286 286 286 287 286 286 286 286 286 286 287 286 285 285 285 285 285 285 286 286 287 287 287 287 284 282 281 283 285 289 290 290 291 292 293 294 294 294 295 296 296 297 298 299 300 300 301 301 301 303 304 307 309 309 309 310 311 313 318 322 327 331 332 335 336 336 339 337 336 337 339 342 341 339 337
287 288 287 287 286 286 286 285 285 285 285 285 286 286 286 286 286 286 286 285 286 286 285 285 285 285 285 284 283 284 284 284 285 285 285 285 282 282 284 284 283 286 289 289 291 292 293 294 294 295 295 295 296 297 298 298 299 300 301 301 304 306 308 309 310 310 310 310 311 315 319 323 327 331 333 336 337 336 336 334 340 342 341 340 339
287 286 287 286 286 286 285 285 285 285 284 284 284 285 285 285 286 286 285 285 285 285 285 285 285 284 284 284 283 283 282 282 282 283 283 281 281 281 282 283 283 282 286 289 290 291 292 293 293 293 294 295 296 296 297 297 297 299 299 301 303 305 307 308 309 310 311 311 310 311 313 317 320 324 328 334 336 337 337 334 337 340 341 340 339
286 286 286 286 285 285 285 285 284 284 284 284 284 285 285 285 284 284 284 285 285 284 284 283 284 283 283 284 283 284 284 283 284 284 282 282 282 280 281 282 282 283 285 287 289 289 290 290 291 292 293 294 295 296 296 298 298 297 297 298 302 304 306 307 308 307 307 308 309 311 313 314 315 317 320 326 332 336 337 335 336 338 339 339 338
285 285 285 285 285 284 284 283 283 284 284 284 284 284 284 284 284 283 283 283 283 283 282 283 283 282 282 283 283 283 283 284 284 283 283 283 282 279 280 282 279 280 283 285 284 287 288 289 290 291 293 293 295 296 297 297 298 297 297 298 300 302 303 305 306 306 305 305 306 308 309 311 313 315 317 319 325 331 336 335 335 337 335 336 338
284 284 285 285 284 284 283 283 283 283 283 283 283 283 283 283 283 282 282 283 283 283 282 282 282 282 282 281 282 282 282 283 283 283 282 281 280 279 279 279 280 279 281 282 283 283 285 288 290 291 292 293 294 295 296 297 298 297 296 296 299 300 302 304 306 305 306 306 307 307 307 308 310 312 314 317 319 326 333 336 334 336 339 337 336
284 284 284 283 283 283 282 282 282 282 282 282 283 283 283 283 282 282 282 282 282 282 282 281 281 281 281 281 281 281 281 282 282 281 282 281 280 280 279 276 277 278 278 280 281 281 282 285 288 288 290 291 292 294 295 296 296 296 295 297 297 298 300 302 304 305 304 304 304 304 304 305 307 311 312 314 317 318 329 334 337 337 337 336 336
283 283 283 283 282 282 282 282 282 282 282 282 282 282 282 281 281 281 281 282 281 281 281 281 281 281 281 281 280 280 281 281 281 281 281 281 281 280 279 278 275 273 277 277 279 279 283 282 285 288 289 290 292 293 294 295 296 296 294 296 296 298 299 301 303 305 305 305 305 305 305 305 307 308 310 311 312 314 319 327 331 331 328 330 328
282 282 282 282 282 281 281 281 281 281 281 281 281 281 281 281 280 280 280 281 281 280 281 281 281 281 281 280 280 280 280 281 281 281 281 281 281 280 280 278 277 275 274 274 276 277 280 283 281 285 289 290 291 294 294 295 295 295 296 296 297 297 298 300 302 303 304 305 306 306 306 306 306 307 308 310 311 312 315 320 323 323 324 326 328
281 282 281 281 281 281 280 280 280 280 280 280 280 280 280 280 280 279 280 280 279 280 280 280 280 280 280 280 280 280 280 280 280 280 280 280 280 280 279 279 279 276 276 274 274 278 278 281 282 282 285 287 290 291 293 293 294 294 295 296 296 295 298 300 302 305 305 305 306 307 308 308 307 306 307 308 309 312 314 317 321 323 324 326 330
281 280 280 280 280 280 280 279 279 279 279 279 279 279 279 278 279 279 279 279 278 278 279 279 279 279 279 279 279 279 279 279 279 279 280 280 279 279 279 279 279 279 277 276 273 276 280 278 280 283 284 286 288 289 291 291 291 291 292 294 296 296 295 296 297 301 303 303 304 304 304 306 308 308 307 307 310 312 314 315 318 321 322 325 328
280 279 279 279 279 278 278 278 278 278 278 278 278 278 278 278 278 278 278 278 277 277 278 279 279 279 278 278 278 278 279 279 278 279 279 279 279 278 278 278 278 278 277 275 273 273 278 279 280 282 284 284 286 286 287 289 289 289 290 291 293 293 293 294 297 299 300 302 303 303 304 305 307 309 310 309 310 311 313 315 317 320 321 321 324
279 278 278 278 278 278 277 277 277 277 277 277 277 277 277 276 277 277 276 276 276 276 277 277 277 277 277 277 277 278 278 277 277 277 278 278 278 278 278 278 277 277 277 275 274 274 277 281 281 281 283 283 283 284 284 285 287 289 291 292 293 293 293 294 294 295 298 300 301 302 304 305 306 308 309 310 310 311 312 314 315 317 319 321 322
278 278 277 277 277 277 277 276 276 276 276 276 276 276 276 275 275 275 275 275 274 274 275 274 275 276 276 275 275 275 276 275 275 276 276 277 277 276 276 276 275 276 276 275 275 275 274 277 278 280 280 282 280 282 281 281 282 284 285 287 289 291 293 294 295 296 298 300 302 303 304 305 306 308 309 309 309 311 312 313 314 315 318 320 320
278 277 277 277 277 276 276 276 276 276 276 275 275 275 274 274 274 274 274 273 272 272 272 272 273 273 273 273 273 273 274 273 273 274 275 274 274 273 273 274 274 274 275 275 274 273 274 275 277 277 278 278 278 278 279 280 281 283 283 284 285 287 291 293 293 295 297 300 302 304 304 305 305 305 306 308 309 310 311 312 313 314 316 318 319
277 277 277 276 276 276 275 275 275 275 274 274 274 274 273 273 272 272 272 272 272 271 271 271 271 271 271 271 271 271 271 271 271 271 272 272 271 271 272 273 273 273 274 274 274 273 273 273 275 275 276 276 277 278 279 280 280 281 282 283 285 286 289 293 294 294 297 300 301 302 303 304 304 304 305 305 306 308 310 311 312 313 315 315 316
276 276 276 276 275 275 274 274 274 273 273 273 272 272 272 272 272 271 271 271 271 271 270 270 271 270 270 270 270 270 270 269 269 269 270 270 270 270 271 271 272 272 272 273 273 274 274 273 274 275 276 276 276 277 277 276 279 281 283 284 286 288 290 291 293 295 296 298 299 300 300 302 303 304 305 305 306 307 309 311 312 313 313 314 314
276 276 275 274 274 273 273 273 273 272 272 272 271 271 271 271 271 271 271 270 270 270 270 270 270 270 269 269 269 270 269 269 269 269 269 269 270 269 270 270 271 271 271 272 273 273 273 273 273 273 274 274 274 275 276 277 277 278 280 283 286 288 290 291 292 294 296 297 298 300 299 300 301 302 304 305 306 307 308 310 311 312 311 311 312
274 274 273 273 273 272 272 272 271 271 271 271 271 271 271 271 270 270 270 270 270 270 270 270 270 270 270 270 269 270 269 269 269 269 269 270 270 269 270 270 270 271 270 271 271 272 273 273 273 273 273 274 274 273 277 279 280 280 281 282 283 286 290 291 292 294 296 296 298 299 300 300 301 301 302 302 304 305 306 307 310 311 309 310 311
272 272 272 271 271 271 271 271 271 271 271 270 270 270 270 270 270 270 270 270 270 270 270 270 270 270 270 270 270 270 270 270 270 270 270 269 270 270 271 271 271 270 270 271 271 271 271 271 271 272 273 273 274 276 277 278 278 279 282 283 283 285 288 292 293 293 295 296 297 298 299 300 300 301 301 302 303 303 304 304 306 309 308 309 310
271 271 271 270 270 270 270 270 270 270 270 270 270 270 270 270 270 270 270 270 271 271 271 271 271 271 271 271 271 271 271 273 274 274 273 273 271 270 270 271 271 270 270 270 271 271 271 271 271 272 272 272 273 274 274 275 277 279 283 285 286 288 290 291 292 295 295 295 295 296 297 299 300 302 303 303 305 304 304 302 305 305 307 309 310
269 269 269 269 269 269 269 270 270 270 270 270 271 272 273 271 271 271 271 271 271 271 271 270 271 271 271 272 272 275 275 275 276 276 277 277 277 274 273 273 272 271 271 270 270 271 270 270 270 271 270 271 272 273 274 276 277 279 281 281 282 286 289 289 290 291 294 295 294 292 293 295 297 299 304 305 306 304 306 307 309 310 307 308 310
268 268 268 268 268 269 269 269 269 270 270 270 272 273 274 275 273 272 272 272 272 272 272 271 271 271 272 272 272 273 274 275 274 276 277 277 277 278 278 278 277 274 272 271 271 271 271 270 271 271 271 271 272 274 274 276 278 278 279 281 283 284 285 285 285 288 291 292 289 288 288 291 292 293 300 305 307 308 309 309 307 307 307 308 309
267 267 267 268 269 269 269 269 269 269 269 271 273 274 274 275 275 273 273 272 272 272 272 272 272 272 272 272 272 272 272 272 272 273 274 276 277 278 278 278 279 279 279 276 273 272 272 272 271 272 272 272 273 274 275 276 277 279 280 281 281 282 284 285 285 285 289 290 288 286 287 290 291 292 294 300 306 309 310 309 307 308 308 308 309
267 267 267 268 268 269 269 268 268 269 269 271 272 273 274 275 276 275 273 273 272 272 272 272 271 271 271 271 271 272 272 275 274 273 273 273 275 277 277 278 278 279 280 280 281 277 276 274 274 274 275 275 274 275 277 277 278 277 278 279 280 281 283 283 285 286 288 289 288 286 285 288 291 291 292 297 303 308 311 308 308 308 308 308 309
266 267 267 268 268 268 268 268 268 268 268 270 272 273 274 275 276 275 273 273 272 272 272 272 271 271 271 271 271 271 272 273 273 272 272 272 272 272 273 273 274 276 278 279 279 280 279 276 275 274 276 277 276 277 278 279 277 276 277 277 279 279 280 282 286 287 289 290 287 286 285 287 290 291 292 295 300 305 310 310 308 308 308 308 308
266 267 267 267 267 267 267 267 267 267 268 271 272 274 274 275 276 276 273 272 272 271 272 272 272 272 272 272 272 272 272 273 273 273 272 272 272 272 272 272 273 273 275 275 276 276 276 277 276 276 276 277 277 278 278 278 278 277 278 278 279 279 281 283 285 287 288 289 288 286 283 287 290 290 291 294 297 302 311 310 307 307 307 308 308
267 267 267 267 266 266 266 266 266 266 267 271 272 273 274 275 276 273 272 271 271 271 272 272 273 273 273 273 272 273 273 273 275 277 276 274 272 272 272 272 273 274 275 278 279 280 278 277 277 277 277 277 280 278 278 278 278 278 279 280 281 281 281 281 281 285 286 288 288 287 285 286 289 289 289 293 297 299 308 311 307 307 307 308 308
266 266 266 266 266 266 266 266 265 265 266 269 271 273 274 275 274 272 272 271 271 271 272 272 273 273 273 273 273 273 273 273 276 278 278 277 273 272 272 272 272 273 274 276 279 281 281 282 282 282 283 283 283 283 283 284 281 281 279 278 278 280 280 280 281 283 285 287 288 289 287 285 288 288 289 292 294 297 305 310 309 306 307 307 307
266 266 266 266 266 266 266 265 266 265 265 268 271 273 274 275 274 272 271 271 271 271 271 272 273 273 274 276 276 274 274 273 277 278 278 275 272 272 271 271 271 271 272 274 275 276 279 281 282 282 282 282 283 284 283 283 284 284 280 276 278 280 280 281 280 282 285 287 288 288 286 285 288 289 289 291 292 296 303 309 309 308 305 306 307
265 266 266 265 265 265 266 265 267 267 266 268 271 272 274 274 274 272 272 271 271 271 271 271 272 273 273 275 276 276 275 275 278 278 278 276 273 273 273 272 271 271 273 275 275 274 275 277 278 279 279 281 280 280 280 283 283 283 281 280 281 280 279 281 282 283 282 284 288 289 286 286 286 287 287 287 288 295 303 306 306 308 308 309 310
Wind_Speed
3 3 3 4 4 5 5 5 5 5 6 6 6 7 7 6 6 7 7 7 7 7 7 8 7 7 8 8 8 8 9 9 9 9 9 9 9 10 12 12 12 16 19 21 21 22 22 22 22 23 24 24 24 24 26 26 24 23 23 23 22 20 20 19 18 19 18 20 20 20 20 24 25 27 21 23 24 24 23 22 21 21 22 22 21
3 3 4 4 4 4 4 5 5 5 5 6 6 6 6 6 6 6 7 7 7 7 7 7 7 8 8 8 8 8 8 8 9 9 9 9 9 10 14 14 13 16 19 20 21 22 23 23 23 22 23 24 25 25 24 24 26 26 24 24 24 21 19 20 19 19 19 20 21 22 21 22 24 25 22 21 21 23 25 26 24 21 20 21 21
3 3 3 4 4 4 4 4 5 5 5 6 6 6 6 6 6 6 6 6 7 7 7 7 7 7 8 8 8 8 9 9 9 9 10 10 10 10 11 15 16 16 17 21 22 22 22 23 23 23 22 23 24 25 25 25 25 25 27 25 24 24 22 21 20 19 19 20 21 21 20 22 21 15 22 24 22 24 27 26 25 23 24 23 21
3 2 3 3 3 4 4 4 4 4 5 6 7 7 7 7 7 7 7 7 7 7 7 7 7 7 8 9 8 8 9 9 9 10 10 10 10 11 10 10 14 15 15 18 21 22 22 23 23 23 23 22 23 23 24 24 25 24 24 27 27 25 22 22 21 20 20 20 20 22 22 22 23 21 23 24 27 26 23 24 22 22 23 23 21
2 3 3 3 3 4 3 4 4 4 5 7 8 7 7 7 7 7 6 6 7 7 6 7 7 8 8 8 8 9 9 9 10 10 10 10 10 11 11 11 11 14 16 16 18 21 22 22 22 22 23 23 23 23 23 23 24 25 24 25 27 28 27 24 21 20 21 20 21 21 22 22 21 23 25 27 26 25 26 25 26 26 23 22 24
3 3 3 3 3 3 3 4 3 4 5 6 6 6 7 7 7 7 7 7 7 7 7 7 7 7 8 8 8 9 9 10 10 10 10 11 11 11 11 11 10 10 10 13 14 15 18 21 21 22 22 22 23 24 24 23 23 24 25 25 26 27 28 29 26 24 23 23 22 22 23 24 24 25 25 26 27 27 27 27 28 29 23 24 25
3 2 2 2 3 3 3 3 3 5 5 5 6 6 7 7 7 7 7 7 7 7 8 8 8 8 8 8 9 9 9 10 10 11 11 11 11 11 11 11 11 10 9 9 10 13 14 17 20 20 21 21 21 23 24 24 23 23 24 25 25 27 27 26 29 28 25 24 23 22 23 24 25 26 24 26 25 27 28 29 27 25 21 23 23
1 1 2 2 3 3 4 3 4 5 5 5 6 6 6 7 7 7 7 8 8 8 8 8 8 9 9 9 9 9 10 10 10 11 11 11 11 11 11 11 10 10 10 10 10 11 15 16 16 20 21 21 22 23 24 25 25 24 24 24 25 26 26 27 27 28 27 25 22 22 22 23 24 25 27 28 29 31 30 29 29 27 25 24 25
0 1 2 2 3 3 4 4 4 5 5 6 6 6 6 6 7 7 7 7 8 10 9 9 9 9 9 10 10 10 10 10 11 11 10 12 12 12 11 11 10 11 11 10 10 10 12 14 15 17 18 20 22 23 23 24 25 26 25 25 25 25 26 27 27 26 26 24 23 23 24 24 25 27 28 30 29 26 27 29 31 31 31 27 26
1 1 2 3 3 4 4 4 4 5 5 6 6 6 7 7 8 7 7 7 8 9 10 9 9 9 10 10 11 10 10 11 11 11 11 12 12 11 11 10 10 10 11 11 11 11 10 12 15 16 18 18 21 23 23 23 23 24 26 26 26 26 26 26 26 26 24 24 27 25 24 25 26 26 27 29 30 31 30 31 29 29 29 27 26
1 1 2 3 3 4 4 4 4 5 6 6 6 7 7 7 7 8 7 7 8 9 10 9 9 10 10 12 12 13 11 11 11 11 12 12 11 10 10 11 11 11 11 11 11 11 11 10 9 9 10 13 15 19 20 20 21 23 24 25 26 27 26 26 27 26 25 26 27 29 24 25 25 25 26 27 28 28 25 25 24 27 27 26 26
1 2 3 3 4 4 5 5 5 5 6 7 6 6 7 8 9 9 9 8 8 8 9 9 10 12 13 12 11 12 13 12 13 14 12 10 10 10 10 10 10 10 10 10 10 10 11 10 10 10 10 11 14 15 17 19 19 22 24 25 26 27 27 26 27 28 27 25 23 28 30 26 26 26 26 27 28 32 36 33 29 27 29 30 27
1 2 3 3 4 4 5 5 6 6 6 7 7 8 8 8 8 8 9 9 8 7 8 8 10 11 8 10 11 12 14 13 14 14 12 10 8 9 9 9 10 10 10 9 10 10 10 11 11 10 10 9 10 12 14 16 18 19 23 24 26 27 27 28 27 27 27 28 26 25 31 28 27 26 27 27 28 29 32 27 28 28 29 31 30
2 2 3 3 4 5 5 6 5 6 6 7 8 9 10 9 8 8 7 8 8 7 7 7 7 8 13 13 9 8 7 10 13 12 9 6 6 7 9 10 10 10 10 10 10 10 10 11 11 10 10 10 9 9 9 10 11 16 20 22 24 26 27 28 28 28 28 28 28 28 27 28 30 28 28 28 28 27 30 35 30 30 35 34 30
3 2 3 3 4 6 6 6 6 5 6 7 8 9 8 9 9 8 8 7 8 7 8 5 7 9 10 12 11 13 5 6 5 3 7 10 11 14 14 12 13 11 10 10 10 11 10 9 10 10 10 10 10 10 10 10 11 13 14 17 19 22 25 27 28 29 28 29 29 29 28 27 28 29 29 30 28 25 27 27 31 31 38 37 37
2 3 3 4 5 6 6 6 6 5 6 7 8 8 8 8 8 8 8 9 7 7 5 6 6 7 8 6 12 9 14 4 8 10 8 13 14 11 7 7 11 12 11 12 11 11 10 10 12 12 13 13 12 12 12 12 16 17 19 20 22 20 24 27 28 29 29 29 30 30 30 29 30 31 30 31 29 29 30 34 38 37 40 41 38
2 3 4 5 5 6 6 6 6 6 6 7 7 8 9 8 8 8 8 8 9 7 7 6 7 6 6 8 8 6 7 12 13 15 6 5 5 9 12 13 12 11 10 11 10 10 11 13 13 12 12 12 12 11 10 11 11 12 13 16 19 19 19 23 27 28 29 29 31 31 32 31 30 30 31 31 28 33 36 33 31 32 41 39 41
3 3 5 5 6 6 6 6 6 6 6 6 7 8 9 9 9 8 9 9 9 8 8 6 6 7 9 9 8 9 13 13 9 13 8 9 13 8 9 9 10 11 11 12 13 12 12 13 13 14 13 12 12 12 13 13 13 12 12 12 13 16 20 22 23 24 27 30 30 31 34 34 32 32 32 31 31 32 34 30 30 30 31 33 37
4 4 5 6 6 6 6 6 6 6 6 7 8 8 8 8 7 7 8 7 7 8 8 7 6 7 8 9 11 11 11 10 11 11 17 9 6 9 10 9 11 12 12 12 11 11 11 12 13 13 14 13 13 13 12 13 15 15 17 18 20 20 20 23 29 28 26 26 28 31 33 36 31 31 32 32 32 32 34 31 31 31 36 37 41
4 5 5 5 5 5 5 5 6 6 6 7 7 8 8 7 7 8 8 8 8 8 8 7 7 7 6 8 9 10 11 13 13 11 13 17 19 6 9 10 10 10 11 12 13 13 12 12 12 13 12 13 12 13 14 14 14 14 13 17 18 19 19 21 23 27 23 21 24 25 30 34 37 31 33 27 27 29 34 36 33 32 36 35 37
5 5 5 5 5 5 5 5 6 6 6 7 8 8 9 9 9 8 8 8 7 8 8 7 7 8 7 8 9 10 10 10 11 11 11 13 20 17 12 8 11 13 10 12 11 11 12 13 13 14 14 14 14 13 14 13 13 14 15 18 19 19 19 19 20 21 24 23 20 23 27 29 32 38 33 35 30 30 36 35 34 32 33 37 37
5 6 6 6 5 5 5 6 6 6 6 8 9 9 9 9 9 9 9 10 8 8 9 8 8 8 8 9 9 9 10 9 9 9 11 12 15 20 18 15 14 11 9 11 13 14 13 13 14 14 14 14 14 14 15 15 14 13 16 21 21 20 20 20 21 21 23 25 26 23 25 28 31 32 39 34 32 33 34 37 35 30 34 37 38
4 4 5 5 5 5 5 6 6 6 7 8 9 8 8 8 8 9 10 10 9 9 10 10 9 9 10 9 10 10 10 10 10 9 11 11 12 17 19 18 17 18 10 10 12 14 13 12 13 13 13 14 15 14 15 16 18 18 22 23 23 22 23 23 22 20 20 21 25 27 26 26 27 30 33 39 33 30 36 37 37 33 36 42 43
4 4 4 4 4 4 5 5 6 6 8 7 8 7 7 7 8 8 8 9 9 9 9 10 11 10 11 10 10 10 11 11 11 10 10 11 12 16 16 16 19 16 9 10 12 15 14 15 13 12 13 14 14 15 16 16 17 23 20 23 23 22 22 21 20 20 21 21 22 25 25 26 28 26 28 34 35 31 32 34 35 32 33 33 31
4 4 3 3 3 4 5 5 5 6 7 7 7 8 8 8 8 9 9 10 9 9 9 10 10 9 9 9 10 10 11 10 11 11 11 11 12 14 15 13 16 20 15 10 11 11 12 14 13 13 14 14 15 15 15 16 15 18 21 18 23 21 21 21 21 22 23 25 25 26 29 29 27 28 26 30 36 33 31 31 35 34 31 38 39
4 4 2 2 3 4 5 6 7 8 8 8 9 8 9 8 9 9 10 9 9 10 10 11 11 12 11 11 11 11 12 11 12 11 11 11 12 13 14 13 14 18 17 16 15 14 12 9 10 12 13 14 15 15 15 16 17 21 24 21 21 23 23 23 20 22 22 24 25 26 28 30 29 28 28 30 33 37 30 29 35 37 37 36 37
4 4 3 3 4 5 6 7 7 8 8 8 7 8 8 8 8 9 9 8 9 9 10 10 11 12 12 12 12 12 12 11 11 12 11 12 12 12 11 15 16 15 18 15 17 19 17 11 12 13 14 14 15 16 16 16 20 25 24 19 17 22 21 21 22 24 26 27 28 30 31 32 31 29 28 29 30 34 38 30 30 34 36 39 39
4 3 3 4 5 6 7 8 8 8 8 9 9 8 8 8 8 8 10 7 9 11 10 11 12 13 13 13 13 14 13 13 12 13 13 13 13 14 14 15 16 18 15 19 16 19 16 16 12 14 14 13 14 14 17 19 17 23 24 18 17 17 23 24 24 26 27 27 28 30 31 31 32 30 28 28 30 30 34 33 28 30 29 36 36
4 3 4 4 5 6 7 7 8 8 8 9 8 8 8 8 9 9 10 9 10 11 10 11 11 12 12 15 15 14 14 14 15 15 15 15 15 15 14 17 14 17 15 17 19 18 17 15 15 11 12 12 13 13 14 13 15 15 12 13 15 15 19 21 23 27 32 30 27 27 29 31 32 32 29 28 29 30 31 32 28 27 29 32 34
4 4 4 5 6 7 7 8 8 8 8 8 8 8 8 8 9 10 9 10 10 10 10 11 12 12 14 15 14 15 14 15 15 16 15 15 16 15 16 17 15 18 17 18 19 13 20 19 17 15 13 15 15 14 14 15 18 20 17 17 17 18 23 22 20 20 20 20 21 22 24 28 30 32 31 29 29 30 31 31 31 26 30 31 33
5 5 5 6 7 7 7 7 7 8 8 8 8 8 8 8 9 9 9 10 10 12 11 12 12 13 14 16 16 16 15 17 17 16 16 16 16 15 15 16 17 17 20 19 21 14 14 22 20 17 18 18 16 15 15 14 18 23 20 19 18 20 23 22 25 26 26 25 25 24 24 26 30 31 31 30 30 31 30 31 32 29 30 35 36
5 6 6 6 6 7 6 7 7 7 8 8 7 8 8 8 9 9 9 10 12 12 13 12 11 13 15 17 17 15 16 16 16 16 17 14 17 15 19 15 16 20 18 18 22 22 14 21 23 20 21 20 17 20 20 17 16 24 20 20 22 25 20 17 24 28 30 30 28 27 25 25 28 31 28 28 30 30 31 31 32 33 31 31 33
6 6 7 7 7 7 7 7 8 8 8 8 7 7 8 9 9 10 11 12 13 12 13 14 14 14 15 17 18 17 17 17 16 16 14 17 18 15 16 18 17 14 19 17 19 22 18 20 20 18 17 19 15 16 19 17 17 18 20 18 20 19 19 17 18 26 27 27 29 28 25 23 24 27 28 27 28 29 30 31 33 34 33 31 36
6 7 7 6 6 7 8 8 8 8 8 8 8 7 8 9 10 8 9 11 12 13 12 14 14 13 14 17 17 17 15 17 16 17 16 14 15 17 14 17 19 14 19 17 18 20 19 19 17 17 13 17 17 18 16 18 19 23 22 20 19 20 19 19 18 17 25 26 25 26 25 23 23 23 25 27 28 27 29 31 32 34 35 33 34
6 6 6 7 7 7 8 8 8 9 9 8 7 7 8 9 10 10 9 10 11 12 13 13 14 13 15 15 16 15 13 15 16 16 15 16 14 17 18 15 20 19 18 19 19 19 19 23 17 17 15 12 18 18 19 18 21 22 23 23 21 20 20 19 17 16 23 27 26 23 22 22 22 24 26 25 26 27 28 30 32 33 35 35 35
7 6 7 7 7 7 8 9 9 9 8 7 7 8 9 9 9 10 10 11 11 12 12 13 13 13 15 15 16 15 15 16 16 16 16 17 17 17 19 18 19 19 19 18 20 20 20 22 19 19 13 18 16 19 17 18 19 21 20 21 23 24 23 18 17 17 19 28 29 23 19 20 22 24 27 27 27 26 28 30 32 34 35 36 36
7 6 6 6 7 7 8 8 8 8 7 7 8 8 8 9 10 10 11 11 11 12 12 12 13 14 15 15 16 16 16 17 17 17 16 20 17 17 18 17 17 19 16 18 19 18 17 20 18 16 16 16 20 16 17 18 21 20 20 20 20 21 21 20 17 16 23 30 33 27 22 22 24 26 27 28 27 26 28 31 32 35 35 35 36
7 6 6 5 5 7 8 8 8 7 7 7 8 9 9 9 9 10 10 11 11 12 12 12 12 13 16 17 17 16 17 18 18 18 17 20 19 18 19 18 18 17 18 19 18 19 20 19 20 19 18 18 18 17 17 17 18 20 19 20 21 20 19 18 16 14 13 13 13 14 16 19 24 28 28 26 26 26 25 30 33 34 37 36 35
6 6 6 6 6 7 8 8 7 7 7 8 8 9 9 9 10 10 11 11 11 11 12 14 15 16 16 17 18 17 19 19 19 18 19 19 19 19 19 19 18 18 18 17 18 19 18 19 18 19 18 18 17 20 18 15 18 18 18 17 18 19 17 17 17 13 12 13 18 19 15 15 16 17 23 28 29 27 25 26 31 34 33 36 35
6 6 6 6 6 7 7 7 7 6 7 8 8 8 9 9 9 9 9 11 13 14 15 15 16 16 17 17 18 18 19 19 19 19 19 19 19 19 17 18 17 17 17 17 17 17 17 18 18 17 17 17 17 17 17 15 16 16 16 16 18 19 17 15 13 10 9 10 10 9 10 14 18 23 25 25 27 27 26 25 29 34 35 35 36
4 5 5 5 7 8 8 7 7 7 7 7 6 7 7 8 8 10 12 12 12 14 14 14 16 17 15 16 16 18 18 24 29 27 26 23 16 17 17 17 18 16 17 15 15 15 16 16 17 15 16 16 16 17 18 16 17 17 15 12 15 16 14 11 9 10 10 8 7 7 8 9 11 12 13 14 15 20 21 24 24 34 38 36 38
4 4 5 6 7 8 7 7 6 6 6 6 8 13 12 10 11 10 11 12 13 13 15 16 15 15 17 17 18 26 29 30 31 32 32 33 34 27 23 17 16 17 15 16 15 15 15 15 17 14 15 18 18 18 19 19 19 19 18 17 18 16 11 9 8 7 6 5 4 6 7 8 11 15 13 13 13 16 13 14 16 21 33 36 37
5 5 5 7 8 7 7 6 6 6 6 6 12 13 14 17 13 12 11 12 12 13 14 14 15 17 17 17 17 21 23 24 23 30 30 32 33 33 35 36 30 22 17 15 15 15 14 15 14 18 15 21 20 19 20 19 17 18 16 15 14 16 14 8 8 4 1 4 4 6 10 8 7 12 13 13 13 12 12 15 21 28 32 35 36
5 5 7 8 7 7 6 5 6 6 7 10 14 14 15 16 15 12 11 12 12 13 13 14 15 16 17 18 17 14 17 19 19 20 24 31 32 33 34 33 33 35 34 26 18 14 14 15 15 16 16 16 18 18 18 17 17 17 17 14 15 15 15 10 7 7 2 6 7 7 11 9 7 11 13 13 12 12 15 18 26 29 32 37 38
5 6 7 7 7 6 5 5 6 7 8 11 13 15 15 16 17 16 11 12 13 13 14 16 17 16 15 16 15 14 14 23 20 20 21 21 26 32 33 34 33 34 33 35 34 26 19 19 19 16 15 17 18 18 18 19 18 20 19 17 16 16 15 16 13 9 8 2 7 9 11 10 6 10 13 13 11 12 16 21 27 29 31 31 36
6 7 7 7 6 6 5 4 5 7 8 10 14 15 15 17 18 16 12 13 13 15 16 16 17 17 18 17 17 19 19 20 20 20 22 22 21 20 20 20 19 23 30 33 35 35 30 22 19 20 17 16 19 19 20 19 21 18 17 19 17 17 18 17 16 13 12 8 10 10 10 10 4 8 12 13 11 13 16 20 28 31 31 34 34
6 6 6 6 6 5 4 4 5 7 8 13 13 15 16 17 18 17 12 13 13 13 16 17 17 16 15 17 18 18 18 16 13 21 21 20 19 17 18 19 20 21 22 21 21 20 18 19 19 20 21 22 20 21 21 20 21 21 19 20 20 20 20 20 18 17 14 9 10 6 8 10 3 8 12 12 13 14 16 21 28 31 33 35 34
5 5 4 5 5 5 5 5 5 7 8 13 14 15 16 17 19 13 11 12 13 14 14 14 17 17 17 19 18 18 17 20 26 32 28 22 19 19 20 19 18 18 18 20 27 27 22 21 18 19 20 21 26 20 21 20 20 19 17 19 19 18 17 16 17 13 11 5 8 7 7 10 4 7 13 12 12 15 16 14 25 33 34 36 37
5 5 5 5 4 4 4 4 6 7 8 11 13 15 16 18 15 11 11 11 13 13 14 18 18 18 19 19 20 21 22 22 26 32 32 30 20 19 19 19 18 17 17 16 25 32 34 37 39 39 40 38 36 36 34 37 28 22 16 19 21 15 15 17 15 13 11 6 5 7 7 12 6 5 12 13 12 14 15 14 16 30 34 36 36
6 5 4 4 4 4 4 5 5 7 8 11 14 15 16 17 16 12 12 13 11 13 17 14 15 18 18 28 25 20 22 23 30 33 33 27 18 17 19 21 22 21 20 19 17 19 30 34 36 38 39 37 37 38 37 37 37 29 20 21 19 14 17 16 17 14 11 9 7 5 8 12 8 5 9 11 12 11 14 14 17 24 35 34 38
4 4 5 4 4 3 3 4 9 9 8 9 13 14 16 17 14 10 10 11 15 15 13 17 17 13 14 15 21 24 26 27 34 31 32 26 19 17 18 19 20 20 17 14 17 19 17 16 17 18 22 26 24 21 22 34 36 33 25 22 17 17 20 18 16 14 14 13 10 9 10 3 3 3 4 8 9 13 11 12 17 18 22 24 28
Wind_Direction
39 21 9 14 359 2 350 1 349 352 347 343 345 339 333 333 330 332 329 325 323 320 321 315 312 312 309 306 304 303 302 298 298 297 292 290 289 285 282 280 272 274 275 275 274 274 273 273 273 274 273 273 274 276 276 270 269 270 267 265 263 252 245 239 229 225 222 226 229 227 228 230 221 218 211 215 205 203 204 199 196 194 194 190 189
41 10 8 6 355 359 353 354 346 348 347 340 341 333 327 321 321 321 322 321 319 316 314 309 308 306 303 300 299 298 298 298 296 296 294 290 287 287 282 273 267 267 272 273 274 274 274 272 271 269 270 272 272 272 275 277 272 268 267 264 263 260 249 242 235 230 224 226 227 229 226 226 225 211 203 215 211 206 205 200 195 191 193 194 193
31 23 360 360 355 355 349 346 340 346 345 333 333 326 316 308 311 310 310 311 305 309 309 308 307 304 302 300 298 297 295 294 292 291 291 289 287 287 286 281 274 265 263 268 271 272 272 273 272 270 267 267 268 270 271 272 275 275 271 268 264 264 258 244 240 236 228 224 224 223 223 224 230 228 210 207 213 212 209 206 193 189 190 192 196
65 34 5 349 352 351 337 342 333 338 337 333 324 315 302 297 296 301 297 292 299 300 302 301 301 301 304 300 299 296 295 296 293 290 288 288 287 285 284 281 276 269 262 259 267 271 273 275 276 275 273 268 267 266 267 269 270 273 274 272 269 263 259 255 244 239 233 226 219 220 219 221 221 214 223 219 212 215 210 205 198 196 193 191 195
46 37 360 343 347 335 330 326 324 338 330 321 313 305 302 303 306 303 297 305 299 300 303 301 302 303 301 301 301 299 297 295 293 292 289 289 288 286 284 284 282 280 271 262 260 265 270 274 276 276 275 274 271 267 265 265 266 267 269 271 270 268 263 257 252 244 241 232 221 219 218 217 218 219 218 215 214 211 205 202 198 195 193 188 195
38 24 360 340 326 314 316 313 320 336 323 313 312 312 305 304 309 309 310 305 308 310 309 304 301 303 303 304 300 297 298 294 293 291 288 286 286 284 283 284 285 284 284 278 271 263 262 267 270 272 273 273 273 273 270 266 265 267 266 266 269 268 266 262 253 243 235 234 230 222 221 222 219 221 217 215 212 211 207 201 196 194 190 189 193
43 10 340 316 302 299 305 305 335 329 314 312 309 303 299 306 314 314 308 308 310 311 308 305 305 302 300 303 301 300 297 292 290 289 287 285 284 282 282 282 282 282 283 285 275 268 261 259 264 269 272 275 274 273 273 271 267 265 266 264 264 267 265 263 264 255 244 234 232 226 222 223 222 215 214 218 214 214 205 198 200 194 185 190 187
60 11 287 297 297 293 299 323 330 321 315 307 301 297 304 308 305 306 310 310 313 309 307 302 300 301 300 297 295 295 292 290 287 284 283 284 282 281 280 280 282 284 290 288 286 280 270 266 263 266 268 269 272 274 274 273 272 268 265 266 264 262 264 263 260 263 257 244 235 226 221 219 220 217 216 217 214 209 205 200 195 191 189 190 188
117 238 270 272 284 297 301 317 330 319 307 300 295 296 304 305 301 301 303 306 308 303 302 302 301 298 297 292 290 288 284 282 280 281 283 277 277 278 280 279 280 278 276 275 276 279 276 265 256 258 257 258 261 266 269 270 269 270 268 265 265 263 261 261 261 257 260 251 238 229 224 225 224 225 221 219 216 211 207 200 196 193 189 186 189
211 275 287 297 292 294 300 310 311 305 297 294 293 296 290 289 294 301 307 306 300 301 301 299 296 296 291 289 285 281 279 277 274 273 274 272 269 272 277 282 280 279 277 274 278 282 284 282 276 264 254 251 253 258 262 265 267 266 267 268 266 264 262 260 259 257 253 253 247 232 228 226 226 225 225 224 217 208 204 201 198 196 191 184 188
231 270 288 298 300 302 300 296 292 288 288 289 292 290 284 280 286 295 293 287 289 289 287 290 291 289 288 285 283 276 272 269 271 271 265 265 273 272 272 275 275 274 276 278 279 282 281 282 283 285 278 262 248 252 262 267 268 268 267 265 266 266 263 260 259 257 252 252 248 245 229 225 224 224 223 221 218 217 215 207 187 182 181 183 187
250 299 292 293 300 298 298 291 278 274 278 283 287 287 294 301 295 293 292 286 278 278 285 293 293 290 285 277 272 276 273 273 272 266 265 268 269 272 273 273 273 273 273 275 277 278 279 280 280 280 280 277 271 260 258 261 263 266 268 268 265 265 265 262 258 256 256 249 242 245 245 229 223 224 223 222 222 211 205 203 190 184 182 185 186
251 267 274 284 281 282 278 272 261 264 269 274 276 283 286 285 287 285 283 284 281 281 288 300 301 293 284 288 288 275 266 264 265 260 257 265 270 276 277 277 276 276 275 276 278 279 281 282 280 279 279 280 279 270 257 253 256 258 262 265 266 264 262 263 260 256 253 252 245 237 241 243 235 225 224 223 221 224 220 202 187 185 184 186 186
235 251 272 268 274 275 271 265 265 266 270 276 279 280 281 277 278 281 271 275 282 288 291 301 295 310 320 313 289 272 271 272 263 273 273 258 266 280 283 277 278 277 277 279 281 280 281 281 280 279 279 280 281 280 278 267 254 249 255 262 267 268 264 260 262 259 254 252 249 243 238 234 237 230 227 224 220 217 218 211 196 188 188 188 185
214 232 250 258 262 266 263 265 265 267 270 272 274 276 273 271 268 272 287 280 280 279 274 262 291 310 300 292 311 326 306 269 251 280 347 329 306 289 284 285 284 285 287 287 287 285 281 281 281 280 284 288 291 289 284 276 277 272 269 270 271 273 273 268 262 262 258 252 250 246 238 232 232 233 227 225 220 211 209 207 203 195 191 188 189
203 233 238 240 245 255 265 268 267 264 265 272 275 275 274 272 269 266 273 285 280 285 284 288 286 313 317 323 307 303 308 311 337 295 290 279 269 268 275 297 307 304 297 288 286 285 288 293 291 290 286 285 281 279 278 279 279 281 280 279 272 265 267 270 268 263 261 257 252 248 243 236 230 231 228 226 219 212 210 209 204 196 194 189 189
207 228 242 250 254 254 260 267 270 272 272 271 271 271 272 269 271 272 269 274 287 287 288 278 272 255 270 307 314 295 284 309 332 297 252 272 289 303 288 279 276 278 279 276 280 285 292 291 288 283 281 281 281 278 276 279 283 283 274 267 262 257 257 263 266 264 262 261 257 251 247 240 234 231 229 228 221 217 218 216 211 202 195 191 190
213 228 237 250 250 249 253 261 265 267 265 268 270 273 271 269 265 265 269 268 276 287 284 278 266 260 251 244 248 275 306 311 321 304 308 273 273 263 280 281 278 278 277 280 283 285 282 280 282 285 285 283 283 282 281 279 276 270 270 275 282 300 296 288 284 286 282 269 258 255 253 246 237 231 230 230 229 221 215 211 211 207 203 196 192
218 225 236 241 248 254 257 259 265 267 271 273 272 272 272 271 271 263 267 278 278 279 284 294 292 268 254 248 253 263 270 288 294 309 305 299 226 278 277 271 275 273 273 277 282 284 282 283 284 283 282 283 282 282 280 278 273 268 267 270 273 270 268 275 281 277 275 278 277 267 257 252 244 236 233 231 230 227 219 210 209 210 202 194 197
220 226 231 236 247 255 257 259 264 267 269 270 271 273 276 275 269 266 269 266 268 271 284 286 284 288 286 278 273 268 263 264 266 274 288 301 301 263 259 276 277 272 280 282 281 277 281 283 284 285 287 286 284 281 282 280 280 279 274 271 273 270 268 267 266 270 268 274 279 279 274 264 255 242 239 232 234 232 229 217 210 209 214 206 196
225 233 231 238 247 255 260 263 267 271 269 271 270 271 272 275 274 271 268 268 267 274 278 279 280 282 293 283 281 275 273 267 268 268 271 292 291 293 287 283 281 280 277 279 279 281 285 286 288 288 285 283 282 281 278 277 277 276 275 273 269 267 268 268 268 269 273 271 271 277 279 278 273 263 242 238 231 233 234 224 214 205 206 208 205
215 217 225 231 240 250 256 263 268 269 270 268 269 272 272 269 268 267 268 270 270 270 270 275 276 278 277 283 280 280 277 273 265 266 268 258 274 296 299 299 293 283 288 286 284 281 279 276 277 279 281 283 284 284 283 281 279 279 277 275 273 272 274 276 276 273 273 276 273 268 272 279 279 275 268 248 236 232 235 233 222 206 200 199 195
214 219 219 228 238 245 257 267 273 275 272 271 268 269 272 273 272 270 267 264 268 269 273 272 271 271 271 269 269 271 273 275 276 276 277 280 285 282 291 296 294 292 277 274 278 277 276 278 279 278 282 281 279 278 276 275 276 273 271 270 270 269 269 268 269 271 271 270 274 272 267 270 275 278 275 268 246 228 238 233 230 218 210 203 197
217 224 226 231 243 252 260 270 269 268 264 263 268 272 277 279 275 273 271 270 267 268 268 269 267 269 268 266 267 268 268 268 272 273 268 270 274 280 287 301 298 281 282 283 275 275 276 274 271 272 276 277 274 272 273 273 271 270 270 272 272 270 269 266 263 266 269 274 278 280 275 268 269 271 277 277 264 234 230 232 233 222 209 202 198
221 226 230 230 245 259 264 264 266 263 268 272 276 276 277 273 272 273 271 270 268 269 270 268 271 272 274 270 271 268 267 268 270 267 266 269 266 274 275 284 283 296 297 293 281 275 265 266 274 273 271 271 273 273 271 268 268 268 267 266 263 265 264 266 270 272 274 274 271 271 273 270 266 267 268 271 275 255 232 227 230 227 217 211 195
229 234 239 250 250 259 264 266 265 268 269 270 270 271 270 269 269 270 271 270 269 268 267 268 267 267 267 269 265 264 265 267 266 265 265 266 264 262 277 278 277 282 290 296 287 287 270 255 259 263 264 266 268 269 267 266 266 265 264 263 260 259 261 262 260 263 263 263 266 265 266 267 263 260 262 265 268 269 245 220 224 222 220 212 209
225 226 223 237 253 258 263 266 266 268 270 271 271 269 268 268 267 268 269 269 269 268 267 267 267 265 265 264 267 266 264 262 262 263 265 261 262 267 271 278 280 275 282 283 289 276 278 279 272 268 265 267 268 271 272 274 276 278 277 271 267 259 254 257 261 263 261 259 259 259 260 261 261 256 254 258 261 269 262 235 224 225 220 215 205
225 229 235 243 251 257 260 261 264 267 268 269 269 268 270 271 272 270 269 270 270 268 268 268 267 266 267 265 266 266 266 265 263 265 263 262 264 266 263 262 268 281 278 281 280 278 284 287 277 269 269 267 267 268 268 269 269 270 275 275 273 267 260 256 257 259 257 255 254 253 252 254 255 253 249 251 256 257 264 251 229 224 220 210 200
221 218 235 241 246 251 256 260 261 264 265 266 267 269 273 273 270 271 270 270 270 271 272 271 269 269 265 265 266 266 266 267 266 263 261 262 261 259 255 255 258 264 273 273 272 282 286 281 285 276 280 286 281 274 269 269 276 280 280 284 286 283 268 257 256 258 260 256 253 251 250 251 252 251 247 246 250 252 253 255 238 221 216 215 200
211 217 224 233 242 247 251 254 258 260 262 266 269 272 272 271 270 270 271 274 273 271 269 269 269 268 270 271 267 268 266 264 263 263 262 260 260 258 257 256 255 257 260 265 272 271 285 282 274 281 282 284 282 280 284 289 293 296 293 290 285 277 283 284 274 268 270 273 275 274 268 260 253 250 247 242 244 246 247 250 246 222 215 217 207
208 214 222 232 236 241 246 256 260 262 265 268 270 270 268 269 271 272 271 270 269 271 268 269 270 269 267 267 267 266 266 265 266 266 265 263 261 260 256 258 256 254 259 263 271 264 266 279 275 275 284 280 281 285 284 284 291 293 293 291 287 288 287 289 288 286 279 272 269 266 267 267 265 254 248 243 241 243 243 243 244 232 220 216 212
214 215 222 229 239 243 247 253 258 263 266 266 264 266 271 269 272 272 274 274 272 270 271 269 268 266 267 268 266 265 267 267 267 267 266 264 263 262 261 259 258 258 258 263 264 270 260 268 273 276 275 279 287 285 281 280 284 285 282 280 279 281 278 273 269 263 263 264 262 259 258 260 262 259 250 246 245 242 239 239 239 237 226 219 219
205 214 219 228 235 240 246 251 255 259 262 265 266 268 269 271 271 273 274 274 274 272 274 272 269 270 270 270 270 270 271 272 273 273 271 269 265 262 263 262 260 261 263 264 266 269 265 261 271 275 282 288 287 289 290 291 289 287 287 286 290 287 283 278 271 267 260 254 253 250 249 251 257 259 254 250 247 246 243 237 236 235 230 217 215
204 215 221 227 235 239 244 249 252 255 257 258 259 261 264 267 268 269 271 274 273 275 274 273 273 271 272 272 273 276 278 277 277 276 274 273 271 271 270 269 269 266 266 268 267 273 277 274 275 279 280 277 278 277 283 286 286 285 283 285 285 283 279 277 274 266 259 251 247 247 248 248 251 256 257 253 251 247 243 239 234 232 230 222 214
204 210 218 224 230 235 244 248 249 251 253 255 256 256 261 264 268 267 267 270 271 271 271 272 274 277 276 276 278 279 279 279 277 276 278 279 281 278 275 270 268 267 267 266 271 271 271 271 275 282 280 282 277 284 283 279 278 276 279 280 281 281 278 272 274 278 280 281 275 262 256 252 250 253 255 256 255 251 243 237 234 230 227 223 217
201 206 212 222 229 237 243 246 247 249 251 256 257 258 259 262 265 267 267 265 267 268 269 272 275 276 276 277 277 277 277 277 277 276 275 276 276 274 272 269 269 269 267 269 266 268 273 279 274 275 287 285 277 274 279 280 277 275 274 274 273 270 266 264 267 273 276 271 262 259 261 260 257 255 255 253 253 255 249 236 231 228 225 221 216
202 205 215 219 230 237 241 243 246 249 253 255 260 261 260 259 262 265 267 267 266 267 268 269 273 277 275 273 276 277 276 275 276 273 274 273 273 273 271 271 269 270 270 267 266 263 267 269 279 276 282 276 279 280 275 278 279 273 271 267 267 265 263 262 261 262 264 265 265 257 252 254 255 255 253 252 250 251 253 245 229 226 222 218 213
200 208 214 222 226 238 242 246 248 252 253 255 256 259 262 263 264 265 267 266 267 269 270 273 274 273 278 272 271 269 270 268 268 269 268 271 270 268 268 269 267 267 270 270 268 268 267 270 272 278 276 276 280 276 274 271 270 275 273 265 261 262 265 264 257 254 250 254 256 252 249 248 249 250 251 249 249 248 249 249 235 223 218 214 207
199 209 215 220 231 236 243 245 246 251 254 255 257 260 262 263 265 265 267 270 270 273 280 284 282 277 271 271 269 267 266 264 264 265 268 268 266 264 264 263 262 264 263 263 267 269 269 270 270 271 275 274 274 279 279 275 277 278 280 282 278 273 266 262 261 256 259 259 255 255 255 255 251 248 245 246 246 246 248 250 241 224 214 207 198
199 212 215 223 232 238 242 245 249 251 256 256 259 260 263 265 268 268 273 279 283 280 276 275 275 273 270 266 266 265 264 262 260 257 256 259 266 264 265 260 258 260 262 263 263 263 266 267 268 271 270 277 279 275 277 274 266 260 252 257 266 269 259 248 240 253 260 255 258 267 270 266 259 252 250 246 243 242 243 247 245 227 209 200 192
199 205 215 226 235 241 241 242 245 250 252 256 255 258 261 268 273 277 277 274 276 280 278 278 278 275 270 268 267 267 261 264 264 264 259 255 258 263 260 259 256 254 256 260 262 264 264 265 267 267 272 274 278 282 282 273 262 266 278 284 278 270 260 244 242 228 233 254 264 269 276 278 272 256 242 241 241 240 241 238 242 226 207 197 190
195 202 213 227 233 238 241 242 246 249 254 254 255 258 267 271 275 276 280 282 282 278 279 279 276 274 275 276 273 271 277 277 278 276 274 271 264 260 260 257 255 252 248 248 250 254 257 259 261 259 266 268 272 278 281 283 286 286 288 291 290 291 279 263 253 236 233 244 295 307 308 304 294 281 259 242 239 232 234 231 230 223 205 190 187
195 203 217 227 229 232 234 241 251 254 256 257 261 267 274 279 285 286 285 282 278 280 281 280 282 286 284 281 284 281 282 281 278 279 277 275 273 270 268 264 258 256 254 248 244 242 245 247 252 255 251 264 265 271 275 281 284 284 282 283 284 292 287 279 281 277 297 35 341 314 301 292 291 290 280 256 240 236 229 231 225 218 202 189 184
197 204 220 224 229 231 233 241 251 259 261 263 268 275 281 286 289 289 288 288 288 286 282 284 286 288 286 287 285 284 283 284 281 281 279 278 276 274 271 269 265 261 261 260 255 246 242 248 245 245 249 248 262 268 273 275 280 287 288 285 282 283 287 291 286 282 288 29 326 302 289 291 295 281 279 269 255 241 234 227 224 212 201 190 181
195 210 218 224 226 228 232 241 256 263 266 269 272 281 288 291 294 294 290 287 286 282 285 287 287 284 283 282 281 279 279 281 282 280 281 281 277 276 274 274 272 266 262 261 262 261 259 258 261 259 255 265 264 267 270 272 278 282 290 292 292 291 290 294 294 292 296 345 304 294 288 285 287 282 280 272 266 255 240 223 217 210 196 197 186
202 215 219 222 227 228 232 247 261 266 269 272 278 286 293 298 299 298 291 287 285 285 285 284 286 289 290 291 292 291 292 290 285 281 283 280 282 282 280 278 277 272 267 264 261 264 264 262 263 265 263 260 265 268 268 272 273 272 278 281 285 286 286 283 291 292 292 304 280 282 281 283 259 279 282 287 284 273 246 220 208 204 194 188 191
202 210 215 218 225 221 235 248 256 267 268 273 282 292 298 301 302 304 298 295 289 285 283 278 275 269 268 272 274 277 279 276 274 280 283 280 278 275 271 267 266 268 268 265 259 254 253 252 255 258 261 260 261 262 267 268 268 268 267 272 278 280 282 283 281 276 282 268 246 238 270 288 329 297 284 286 291 276 248 217 199 198 193 189 187
202 212 223 222 224 224 231 243 255 265 270 277 287 293 299 304 307 308 301 293 289 287 283 281 281 280 284 287 291 289 283 287 289 285 284 285 278 276 275 273 270 269 270 271 269 260 256 252 249 248 252 252 253 253 254 259 263 265 266 265 262 260 266 272 272 276 270 239 204 220 262 283 270 281 285 284 281 276 250 220 195 193 191 188 185
202 210 213 226 226 224 233 243 256 267 273 281 288 296 302 307 311 307 301 295 293 286 286 290 287 285 283 279 282 289 294 296 294 293 291 288 284 277 273 272 271 271 268 266 268 268 266 260 257 255 254 252 254 253 254 255 258 261 264 267 264 267 268 268 268 266 264 246 221 214 262 280 275 275 283 280 280 274 259 216 190 190 188 187 185
200 201 217 230 230 229 236 247 259 269 275 285 293 298 304 308 312 308 304 301 290 295 293 282 287 284 276 275 281 287 294 298 297 296 296 298 291 281 272 269 268 264 261 261 263 263 264 264 262 262 262 263 264 261 257 260 262 260 252 254 258 262 262 260 264 264 271 257 244 217 263 260 284 265 283 290 286 272 251 218 186 189 187 186 183
199 206 218 231 231 242 245 255 266 271 271 275 287 300 308 311 313 308 305 302 301 293 291 292 286 279 277 281 290 301 302 298 300 299 299 301 296 294 289 284 279 274 272 264 255 255 254 256 257 260 261 264 264 260 260 260 261 258 253 253 257 253 256 260 259 264 266 255 251 196 230 258 320 269 324 306 299 290 241 209 187 185 185 182 183